User: anonymous   Login
Location: Broletto
(44.6000°N, 10.5833°E)
Time: 05:12:13
(UTC+00:00)
Language:

ATLAS 5 CENTAUR R/B - Orbit

View from above orbital plane
View from above orbital plane
View from above satellite
View from above satellite

Ground track
Ground track

The orbit data is extracted from the following two-line orbital elements,

1 32379U 07060B   21170.62164143  .00012206  00000-0  10518-2 0  9993
2 32379  60.7843 321.0803 5108047 126.0959 292.7728  5.48869372 38198
Epoch (UTC): 19 June 2021 14:55:09
Eccentricity: 0.5108047
inclination: 60.7843°
perigee height: 263 km
apogee height: 14131 km
right ascension of ascending node: 321.0803°
argument of perigee: 126.0959°
revolutions per day: 5.48869372
mean anomaly at epoch: 292.7728°
orbit number at epoch: 3819

The dashed part of the orbit path shows where the satellite is in the earth's shadow,  

DLR